Keahole Point, HI

4:11 AM HST on June 23, 2017 (GMT -1000)
Kona International At Keahole

Weather History for PHKO - July, 2013

Change the Weather History Date:

Friday, July 19, 2013

  Actual Average Record
Temperature  
Mean Temperature 80 °F -  
Max Temperature 84 °F 83 °F 93 °F (1982)
Min Temperature 75 °F 73 °F 70 °F (1984)
Cooling Degree Days 14    
Growing Degree Days 30 (Base 50)    
Moisture  
Dew Point 68 °F    
Average Humidity 67    
Maximum Humidity 77    
Minimum Humidity 59    
Precipitation  
Precipitation 0.00 in - - ()
Sea Level Pressure  
Sea Level Pressure 30.01 in    
Wind  
Wind Speed 6 mph (SW)    
Max Wind Speed 14 mph    
Max Gust Speed -    
Visibility 10 miles    
Events      
Averages and records for this station are not official NWS values.
T = Trace of Precipitation, MM = Missing Value Source: NWS Daily Summary

Daily Weather History Graph

Daily Weather History Graph

Search for Another Location

Airport or City:

Trip Planner

Search our weather history database for the weather conditions in past years. The results will help you decide how hot, cold, wet, or windy it might be!

Date:

Astronomy

Jul. 19, 2013 Rise Set
Actual Time 5:55 AM HST 7:05 PM HST
Civil Twilight 5:31 AM HST 7:29 PM HST
Nautical Twilight 5:03 AM HST 7:57 PM HST
Astronomical Twilight 4:33 AM HST 8:26 PM HST
Moon 4:19 PM HST (7/19) 2:45 AM HST (7/19)
Length of Visible Light 13h 57m
Length of Day
13h 09m
Waxing Gibbous, 88% of the Moon is Illuminated
Jul 19
Waxing Gibbous
Jul 22
Full
Jul 29
Last Quarter
Aug 6
New
Aug 14
First Quarter

Hourly Weather History & Observations

Time (HST) Temp. Heat Index Dew Point Humidity Pressure Visibility Wind Dir Wind Speed Gust Speed Precip Events Conditions
12:53 AM 78.1 °F - 69.1 °F 74% 30.02 in 10.0 mi SSE 4.6 mph - N/A   Partly Cloudy
1:53 AM 77.0 °F - 66.9 °F 71% 30.01 in 10.0 mi Calm Calm - N/A   Scattered Clouds
2:53 AM 77.0 °F - 66.9 °F 71% 30.00 in 10.0 mi Calm Calm - N/A   Clear
3:53 AM 75.0 °F - 66.0 °F 73% 29.99 in 10.0 mi ENE 3.5 mph - N/A   Clear
4:53 AM 75.9 °F - 66.0 °F 71% 29.99 in 10.0 mi NNW 3.5 mph - N/A   Clear
5:53 AM 75.9 °F - 64.9 °F 69% 30.01 in 10.0 mi NE 3.5 mph - N/A   Partly Cloudy
6:53 AM 79.0 °F - 64.0 °F 60% 30.03 in 10.0 mi ENE 3.5 mph - N/A   Partly Cloudy
7:53 AM 80.1 °F 82.1 °F 66.0 °F 62% 30.04 in 10.0 mi Calm Calm - N/A   Clear
8:53 AM 81.0 °F 83.3 °F 66.9 °F 62% 30.05 in 10.0 mi SSW 6.9 mph - N/A   Clear
9:53 AM 82.9 °F 86.5 °F 69.1 °F 63% 30.04 in 10.0 mi SW 6.9 mph - N/A   Clear
10:53 AM 84.0 °F 87.8 °F 69.1 °F 61% 30.04 in 10.0 mi SW 10.4 mph - N/A   Clear
11:53 AM 84.0 °F 87.8 °F 69.1 °F 61% 30.02 in 10.0 mi SSW 12.7 mph - N/A   Clear
12:53 PM 84.0 °F 88.4 °F 70.0 °F 63% 30.01 in 10.0 mi SSW 12.7 mph - N/A   Partly Cloudy
1:53 PM 84.9 °F 88.8 °F 69.1 °F 59% 30.00 in 10.0 mi SSW 12.7 mph - N/A   Mostly Cloudy
2:53 PM 84.0 °F 88.4 °F 70.0 °F 63% 29.99 in 10.0 mi WSW 11.5 mph - N/A   Overcast
3:53 PM 84.0 °F 88.4 °F 70.0 °F 63% 29.98 in 10.0 mi WSW 11.5 mph - N/A   Mostly Cloudy
4:53 PM 82.9 °F 87.5 °F 71.1 °F 67% 29.97 in 10.0 mi WSW 13.8 mph - N/A   Partly Cloudy
5:53 PM 82.0 °F 85.9 °F 70.0 °F 67% 29.98 in 10.0 mi WSW 10.4 mph - N/A   Mostly Cloudy
6:53 PM 81.0 °F 84.4 °F 70.0 °F 69% 29.99 in 10.0 mi West 10.4 mph - N/A   Overcast
7:53 PM 80.1 °F 83.2 °F 70.0 °F 71% 30.01 in 10.0 mi West 12.7 mph - N/A   Mostly Cloudy
8:53 PM 80.1 °F 83.2 °F 70.0 °F 71% 30.02 in 10.0 mi West 10.4 mph - N/A   Mostly Cloudy
9:53 PM 80.1 °F 83.2 °F 70.0 °F 71% 30.04 in 10.0 mi NW 6.9 mph - N/A   Mostly Cloudy
10:53 PM 79.0 °F - 71.1 °F 77% 30.05 in 10.0 mi SW 3.5 mph - N/A   Scattered Clouds
11:53 PM 78.1 °F - 66.0 °F 66% 30.04 in 10.0 mi SE 11.5 mph - N/A   Clear